Satellite: NOAA-16
Catalog number: 26536
Epoch time:      05138.24985915
Element set:     354
Inclination:      099.0124 deg
RA of node:       096.5257 deg
Eccentricity:    0.0011192
Arg of perigee:   148.1808 deg
Mean anomaly:     212.0042 deg
Mean motion:   14.12237577 rev/day
Decay rate:       -4.5e-07 rev/day^2
Epoch rev:           23983
Checksum:              300

Satellite: NOAA-17
Catalog number: 27453
Epoch time:      05139.40351232
Element set:     380
Inclination:      098.6606 deg
RA of node:       213.3505 deg
Eccentricity:    0.0012876
Arg of perigee:   136.5317 deg
Mean anomaly:     223.6887 deg
Mean motion:   14.23664551 rev/day
Decay rate:        9.8e-07 rev/day^2
Epoch rev:           15074
Checksum:              300

/EX
SB KEPS @ AMSAT  $ORB05139.M
Orbital Elements  05139.MISC

HR AMSAT ORBITAL ELEMENTS FOR MANNED AND MISCELLANEOUS SATELLITES
FROM WA5QGD FORT WORTH,TX May 19, 2005
SEND SUBSCRIBE/UNSUBSCRIBE TO majordomo@amsat.org ONLY
BID: ORB05139.M
TO ALL RADIO AMATEURS BT

Satellite: HUBBLE
Catalog number: 20580
Epoch time:      05138.97683684
Element set:    0342
Inclination:      028.4665 deg
RA of node:       099.1087 deg
Eccentricity:    0.0003404
Arg of perigee:   318.8644 deg
Mean anomaly:     041.1713 deg
Mean motion:   14.99717677 rev/day
Decay rate:      1.327e-05 rev/day^2
Epoch rev:           62585
Checksum:              324

Satellite: UARS
Catalog number: 21701
Epoch time:      05138.81415816
Element set:     443
Inclination:      056.9812 deg
RA of node:       309.1240 deg
Eccentricity:    0.0003926
Arg of perigee:   099.1419 deg
Mean anomaly:     261.0395 deg
Mean motion:   15.03828161 rev/day
Decay rate:       2.29e-06 rev/day^2
Epoch rev:           74907
Checksum:              286

Satellite: PO-34
Catalog number: 25520
Epoch time:      05139.67756281
Element set:     183
Inclination:      028.4584 deg
RA of node:       142.8897 deg
Eccentricity:    0.0005217
Arg of perigee:   275.1722 deg
Mean anomaly:     084.8269 deg
Mean motion:   15.16274349 rev/day
Decay rate:      1.385e-05 rev/day^2
Epoch rev:           36225
Checksum:              327

Satellite: ISS
Catalog number: 25544
Epoch time:      05139.97995370
Element set:     507
Inclination:      051.6450 deg
RA of node:       045.3877 deg
Eccentricity:    0.0006385
Arg of perigee:   141.5860 deg
Mean anomaly:     042.1436 deg
Mean motion:   15.71944204 rev/day
Decay rate:     2.3015e-04 rev/day^2
Epoch rev:           37124
Checksum:              293

Satellite: WO-39
Catalog number: 26061
Epoch time:      03303.41062303
Element set:     973
Inclination:      100.1904 deg
RA of node:       047.3011 deg
Eccentricity:    0.0034615
Arg of perigee:   281.6926 deg
Mean anomaly:     078.0378 deg
Mean motion:   14.38082544 rev/day
Decay rate:      2.252e-05 rev/day^2
Epoch rev:           19701
Checksum:              268

Satellite: OO-38
Catalog number: 26063
Epoch time:      05139.34536614
Element set:     352
Inclination:      100.2202 deg
RA of node:       354.1087 deg
Eccentricity:    0.0037195
Arg of perigee:   136.1910 deg
Mean anomaly:     224.2218 deg
Mean motion:   14.35717815 rev/day
Decay rate:        6.4e-07 rev/day^2
Epoch rev:           27815
Checksum:              276

Satellite: NO-45
Catalog number: 26932
Epoch time:      05138.83204437
Element set:    0036
Inclination:      067.0584 deg
RA of node:       303.0533 deg
Eccentricity:    0.0007940
Arg of perigee:   251.0717 deg
Mean anomaly:     108.9541 deg
Mean motion:   14.29484925 rev/day
Decay rate:       1.43e-06 rev/day^2
Epoch rev:           18960
Checksum:              296

/EX



----
Via the keps mailing list at AMSAT.ORG courtesy of AMSAT-NA.
To unsubscribe, send "unsubscribe keps" to Majordomo@amsat.org

--- ViaMAIL!/WC v1.60d
 * Origin: Chowdanet (401-331-0615) telnet://chowdanet.com  (1:323/120)